Yankton, SD

3:56 AM CST on February 24, 2017 (GMT -0600)
Gurney Municipal

Weather History for KYKN - February, 2012

Change the Weather History Date:

Friday, February 17, 2012

  Actual Average Record
Temperature  
Mean Temperature 30 °F -  
Max Temperature 37 °F 33 °F 66 °F (1948)
Min Temperature 23 °F 12 °F -20 °F (1979)
Degree Days  
Heating Degree Days 35    
Moisture  
Dew Point 20 °F    
Average Humidity 65    
Maximum Humidity 86    
Minimum Humidity 41    
Precipitation  
Precipitation 0.00 in - - ()
Sea Level Pressure  
Sea Level Pressure 30.10 in    
Wind  
Wind Speed 10 mph (NW)    
Max Wind Speed 22 mph    
Max Gust Speed 28 mph    
Visibility 10 miles    
Events      
Averages and records for this station are not official NWS values.
T = Trace of Precipitation, MM = Missing Value Source: NWS Daily Summary

Daily Weather History Graph

Daily Weather History Graph

Search for Another Location

Airport or City:

Trip Planner

Search our weather history database for the weather conditions in past years. The results will help you decide how hot, cold, wet, or windy it might be!

Date:

Astronomy

Feb. 17, 2012 Rise Set
Actual Time 7:24 AM CST 6:03 PM CST
Civil Twilight 6:55 AM CST 6:32 PM CST
Nautical Twilight 6:22 AM CST 7:05 PM CST
Astronomical Twilight 5:49 AM CST 7:38 PM CST
Moon 4:21 AM CST (2/17) 1:52 PM CST (2/17)
Length of Visible Light 11h 36m
Length of Day
10h 38m
Waning Crescent, 19% of the Moon is Illuminated
Feb 17
Waning Crescent
Feb 21
New
Feb 29
First Quarter
Mar 8
Full
Mar 14
Last Quarter

Hourly Weather History & Observations

Time (CST) Temp. Windchill Dew Point Humidity Pressure Visibility Wind Dir Wind Speed Gust Speed Precip Events Conditions
12:15 AM 33.8 °F 27.0 °F 26.6 °F 75% 29.99 in 10.0 mi SW 8.1 mph - N/A   Clear
12:35 AM 32.0 °F 24.2 °F 26.6 °F 80% 29.99 in 10.0 mi SW 9.2 mph - N/A   Clear
12:55 AM 30.2 °F 22.6 °F 26.6 °F 86% 29.98 in 10.0 mi SSW 8.1 mph - N/A   Clear
1:15 AM 30.2 °F 21.3 °F 26.6 °F 86% 29.98 in 10.0 mi SSW 10.4 mph - N/A   Clear
1:35 AM 32.0 °F 24.2 °F 26.6 °F 80% 29.97 in 10.0 mi SW 9.2 mph - N/A   Clear
1:55 AM 32.0 °F 24.2 °F 26.6 °F 80% 29.97 in 10.0 mi SW 9.2 mph - N/A   Clear
2:15 AM 30.2 °F - 24.8 °F 80% 29.97 in 10.0 mi Calm Calm - N/A   Clear
2:35 AM 30.2 °F - 26.6 °F 86% 29.97 in 10.0 mi Calm Calm - N/A   Clear
2:55 AM 30.2 °F - 24.8 °F 80% 29.98 in 10.0 mi Calm Calm - N/A   Clear
3:15 AM 26.6 °F 22.6 °F 23.0 °F 86% 29.98 in 10.0 mi NNW 3.5 mph - N/A   Clear
3:35 AM 30.2 °F 22.6 °F 26.6 °F 86% 29.98 in 10.0 mi West 8.1 mph - N/A   Clear
3:55 AM 30.2 °F 20.2 °F 24.8 °F 80% 29.98 in 10.0 mi WNW 12.7 mph - N/A   Clear
4:15 AM 30.2 °F 19.8 °F 21.2 °F 69% 29.98 in 10.0 mi WNW 13.8 mph - N/A   Clear
4:35 AM 30.2 °F 19.8 °F 21.2 °F 69% 29.99 in 10.0 mi WNW 13.8 mph - N/A   Clear
4:55 AM 28.4 °F 18.5 °F 19.4 °F 69% 30.00 in 10.0 mi WNW 11.5 mph - N/A   Clear
5:15 AM 28.4 °F 17.5 °F 19.4 °F 69% 30.00 in 10.0 mi NW 13.8 mph - N/A   Clear
5:35 AM 26.6 °F 15.2 °F 19.4 °F 74% 30.01 in 10.0 mi WNW 13.8 mph - N/A   Clear
5:55 AM 26.6 °F 15.2 °F 17.6 °F 69% 30.02 in 10.0 mi WNW 13.8 mph - N/A   Clear
6:15 AM 26.6 °F 15.7 °F 17.6 °F 69% 30.03 in 10.0 mi WNW 12.7 mph - N/A   Clear
6:35 AM 26.6 °F 16.2 °F 17.6 °F 69% 30.04 in 10.0 mi WNW 11.5 mph - N/A   Clear
6:55 AM 24.8 °F 12.9 °F 17.6 °F 74% 30.05 in 10.0 mi NW 13.8 mph - N/A   Clear
7:15 AM 24.8 °F 12.9 °F 17.6 °F 74% 30.05 in 10.0 mi NW 13.8 mph - N/A   Clear
7:35 AM 23.0 °F 12.4 °F 17.6 °F 80% 30.06 in 10.0 mi NW 10.4 mph - N/A   Clear
7:55 AM 23.0 °F 12.4 °F 17.6 °F 80% 30.07 in 10.0 mi NW 10.4 mph - N/A   Clear
8:15 AM 24.8 °F 14.6 °F 19.4 °F 80% 30.09 in 10.0 mi WNW 10.4 mph - N/A   Clear
8:35 AM 24.8 °F 16.1 °F 19.4 °F 80% 30.10 in 10.0 mi WNW 8.1 mph - N/A   Clear
8:55 AM 26.6 °F 14.7 °F 19.4 °F 74% 30.10 in 10.0 mi NW 15.0 mph - N/A   Clear
9:15 AM 26.6 °F 16.8 °F 19.4 °F 74% 30.11 in 10.0 mi NW 10.4 mph - N/A   Clear
9:35 AM 28.4 °F 18.5 °F 21.2 °F 74% 30.12 in 10.0 mi NW 11.5 mph - N/A   Clear
9:55 AM 28.4 °F 18.5 °F 21.2 °F 74% 30.13 in 10.0 mi WNW 11.5 mph - N/A   Clear
10:15 AM 30.2 °F 21.3 °F 21.2 °F 69% 30.15 in 10.0 mi WNW 10.4 mph - N/A   Clear
10:35 AM 30.2 °F 21.3 °F 21.2 °F 69% 30.16 in 10.0 mi WNW 10.4 mph - N/A   Partly Cloudy
10:55 AM 32.0 °F 23.0 °F 23.0 °F 69% 30.16 in 10.0 mi NW 11.5 mph - N/A   Scattered Clouds
11:15 AM 33.8 °F 25.8 °F 23.0 °F 65% 30.16 in 10.0 mi NW 10.4 mph - N/A   Scattered Clouds
11:35 AM 35.6 °F 26.6 °F 24.8 °F 65% 30.17 in 10.0 mi NW 13.8 mph 18.4 mph N/A   Scattered Clouds
11:55 AM 33.8 °F 23.5 °F 21.2 °F 60% 30.17 in 10.0 mi NW 16.1 mph 20.7 mph N/A   Partly Cloudy
12:15 PM 35.6 °F 24.8 °F 23.0 °F 60% 30.16 in 10.0 mi NW 19.6 mph 25.3 mph N/A   Clear
12:35 PM 35.6 °F 25.9 °F 21.2 °F 56% 30.16 in 10.0 mi NNW 16.1 mph - N/A   Clear
12:55 PM 35.6 °F 25.9 °F 21.2 °F 56% 30.16 in 10.0 mi NW 16.1 mph 23.0 mph N/A   Clear
1:15 PM 37.4 °F 27.8 °F 21.2 °F 52% 30.15 in 10.0 mi NW 17.3 mph 21.9 mph N/A   Clear
1:35 PM 37.4 °F 27.2 °F 19.4 °F 48% 30.16 in 10.0 mi NNW 19.6 mph 24.2 mph N/A   Clear
1:55 PM 37.4 °F 26.9 °F 19.4 °F 48% 30.16 in 10.0 mi NNW 20.7 mph - N/A   Clear
2:15 PM 37.4 °F 27.8 °F 17.6 °F 45% 30.15 in 10.0 mi NNW 17.3 mph 24.2 mph N/A   Clear
2:35 PM 37.4 °F 26.9 °F 17.6 °F 45% 30.15 in 10.0 mi NNW 20.7 mph 27.6 mph N/A   Clear
2:55 PM 37.4 °F 26.6 °F 17.6 °F 45% 30.16 in 10.0 mi NNW 21.9 mph 25.3 mph N/A   Clear
3:35 PM 37.4 °F 27.2 °F 17.6 °F 45% 30.17 in 10.0 mi NNW 19.6 mph 26.5 mph N/A   Clear
4:15 PM 37.4 °F 26.6 °F 15.8 °F 41% 30.17 in 10.0 mi NNW 21.9 mph - N/A   Clear
4:35 PM 37.4 °F 27.5 °F 15.8 °F 41% 30.18 in 10.0 mi NNW 18.4 mph 25.3 mph N/A   Clear
4:55 PM 35.6 °F 25.5 °F 15.8 °F 44% 30.18 in 10.0 mi NNW 17.3 mph - N/A   Clear
5:15 PM 35.6 °F 25.5 °F 15.8 °F 44% 30.19 in 10.0 mi NNW 17.3 mph - N/A   Clear
5:35 PM 35.6 °F 26.6 °F 14.0 °F 41% 30.19 in 10.0 mi NNW 13.8 mph 20.7 mph N/A   Clear
5:55 PM 33.8 °F 25.3 °F 14.0 °F 44% 30.20 in 10.0 mi North 11.5 mph 16.1 mph N/A   Clear
6:35 PM 30.2 °F 24.3 °F 14.0 °F 51% 30.21 in 10.0 mi NNW 5.8 mph - N/A   Clear
6:55 PM 28.4 °F 23.3 °F 14.0 °F 55% 30.21 in 10.0 mi NW 4.6 mph - N/A   Clear
7:15 PM 28.4 °F 23.3 °F 14.0 °F 55% 30.21 in 10.0 mi NNW 4.6 mph - N/A   Clear
7:35 PM 28.4 °F 22.2 °F 12.2 °F 51% 30.21 in 10.0 mi NW 5.8 mph - N/A   Clear
7:55 PM 28.4 °F - 14.0 °F 55% 30.22 in 10.0 mi Calm Calm - N/A   Clear
8:15 PM 28.4 °F 24.6 °F 12.2 °F 51% 30.22 in 10.0 mi WNW 3.5 mph - N/A   Clear
8:35 PM 28.4 °F 23.3 °F 12.2 °F 51% 30.23 in 10.0 mi West 4.6 mph - N/A   Clear
8:55 PM 26.6 °F 22.6 °F 14.0 °F 59% 30.23 in 10.0 mi West 3.5 mph - N/A   Clear
9:15 PM 24.8 °F 20.5 °F 14.0 °F 64% 30.23 in 10.0 mi West 3.5 mph - N/A   Clear
9:35 PM 21.2 °F 14.9 °F 12.2 °F 68% 30.24 in 10.0 mi West 4.6 mph - N/A   Clear
9:55 PM 19.4 °F - 14.0 °F 80% 30.24 in 10.0 mi Calm Calm - N/A   Clear
10:15 PM 21.2 °F - 12.2 °F 68% 30.24 in 10.0 mi Calm Calm - N/A   Clear
10:35 PM 21.2 °F - 14.0 °F 74% 30.24 in 10.0 mi Calm Calm - N/A   Clear
11:15 PM 21.2 °F 16.4 °F 14.0 °F 74% 30.24 in 10.0 mi WSW 3.5 mph - N/A   Clear
11:35 PM 21.2 °F - 14.0 °F 74% 30.24 in 10.0 mi Calm Calm - N/A   Clear
11:55 PM 21.2 °F 13.6 °F 12.2 °F 68% 30.24 in 10.0 mi SW 5.8 mph - N/A   Clear